Meadville, PA

5:01 PM EDT on June 26, 2017 (GMT -0400)
Port Meadville

Weather History for KGKJ - May, 2013

Change the Weather History Date:

Tuesday, May 28, 2013

  Actual Average Record
Temperature  
Mean Temperature 63 °F -  
Max Temperature 75 °F 70 °F 88 °F (1978)
Min Temperature 51 °F 46 °F 33 °F (1961)
Degree Days  
Heating Degree Days 2    
Growing Degree Days 13 (Base 50)    
Moisture  
Dew Point 58 °F    
Average Humidity 85    
Maximum Humidity 94    
Minimum Humidity 66    
Precipitation  
Precipitation 1.09 in - - ()
Sea Level Pressure  
Sea Level Pressure 30.02 in    
Wind  
Wind Speed 5 mph (SSW)    
Max Wind Speed 10 mph    
Max Gust Speed 18 mph    
Visibility 7 miles    
Events Rain    
Averages and records for this station are not official NWS values.
T = Trace of Precipitation, MM = Missing Value Source: NWS Daily Summary

Daily Weather History Graph

Daily Weather History Graph

Search for Another Location

Airport or City:

Trip Planner

Search our weather history database for the weather conditions in past years. The results will help you decide how hot, cold, wet, or windy it might be!

Date:

Astronomy

May. 28, 2013 Rise Set
Actual Time 5:50 AM EDT 8:45 PM EDT
Civil Twilight 5:17 AM EDT 9:18 PM EDT
Nautical Twilight 4:36 AM EDT 10:00 PM EDT
Astronomical Twilight 3:47 AM EDT 10:49 PM EDT
Moon No Moon Rise 9:38 AM EDT (5/28)
Length of Visible Light 16h 00m
Length of Day
14h 54m
Waning Gibbous, 83% of the Moon is Illuminated
May 28
Waning Gibbous
May 31
Last Quarter
Jun 8
New
Jun 16
First Quarter
Jun 23
Full

Hourly Weather History & Observations

Time (EDT) Temp. Dew Point Humidity Pressure Visibility Wind Dir Wind Speed Gust Speed Precip Events Conditions
12:53 AM 53.1 °F 46.0 °F 77% 30.13 in 10.0 mi Calm Calm - 0.02 in Rain Light Rain
1:53 AM 52.0 °F 46.9 °F 83% 30.09 in 10.0 mi East 6.9 mph - 0.02 in Rain Light Rain
2:53 AM 53.1 °F 48.9 °F 86% 30.09 in 3.0 mi West 5.8 mph - 0.09 in Rain Rain
2:56 AM 51.8 °F 48.2 °F 88% 30.10 in 2.0 mi SSW 4.6 mph - 0.04 in Rain Heavy Rain
3:12 AM 51.8 °F 48.2 °F 88% 30.09 in 3.0 mi Calm Calm - 0.10 in Rain Heavy Rain
3:20 AM 51.8 °F 48.2 °F 88% 30.07 in 5.0 mi ESE 4.6 mph - 0.11 in Rain Light Rain
3:53 AM 52.0 °F 48.9 °F 89% 30.05 in 4.0 mi Variable 5.8 mph - 0.23 in Rain Rain
4:53 AM 53.1 °F 51.1 °F 93% 30.03 in 5.0 mi Variable 6.9 mph - 0.10 in Rain Rain
5:53 AM 54.0 °F 52.0 °F 93% 30.01 in 5.0 mi Variable 5.8 mph - 0.14 in Rain Rain
6:19 AM 53.6 °F 51.8 °F 94% 30.02 in 5.0 mi Variable 6.9 mph - 0.04 in Rain Light Rain
6:36 AM 53.6 °F 51.8 °F 94% 30.02 in 4.0 mi Variable 4.6 mph - 0.07 in Rain Rain
6:43 AM 53.6 °F 51.8 °F 94% 30.02 in 4.0 mi Variable 4.6 mph - 0.08 in Rain Light Rain
6:53 AM 54.0 °F 52.0 °F 93% 30.03 in 4.0 mi Variable 4.6 mph - 0.10 in Rain Rain
7:04 AM 55.4 °F 53.6 °F 94% 30.03 in 2.0 mi South 5.8 mph - 0.03 in Rain Rain
7:17 AM 55.4 °F 53.6 °F 94% 30.03 in 4.0 mi Variable 3.5 mph - 0.04 in Rain Light Rain
7:53 AM 55.9 °F 54.0 °F 93% 30.03 in 5.0 mi SSE 4.6 mph - 0.07 in Rain Light Rain
8:02 AM 55.4 °F 53.6 °F 94% 30.03 in 8.0 mi Variable 4.6 mph - 0.00 in Rain Light Rain
8:53 AM 57.0 °F 55.0 °F 93% 30.04 in 7.0 mi South 5.8 mph - 0.00 in   Overcast
9:53 AM 59.0 °F 55.9 °F 90% 30.05 in 9.0 mi SSW 8.1 mph - N/A   Overcast
10:50 AM 62.6 °F 59.0 °F 88% 30.05 in 10.0 mi SSW 9.2 mph - N/A   Mostly Cloudy
10:53 AM 64.0 °F 59.0 °F 84% 30.05 in 10.0 mi SSW 8.1 mph - N/A   Mostly Cloudy
11:02 AM 64.4 °F 59.0 °F 83% 30.05 in 10.0 mi SSW 8.1 mph - N/A   Mostly Cloudy
11:31 AM 66.2 °F 60.8 °F 83% 30.04 in 10.0 mi SSW 9.2 mph - N/A   Scattered Clouds
11:53 AM 66.9 °F 61.0 °F 81% 30.04 in 10.0 mi WSW 8.1 mph - 0.00 in   Partly Cloudy
12:35 PM 69.8 °F 62.6 °F 78% 30.06 in 10.0 mi SSW 9.2 mph - N/A   Mostly Cloudy
12:53 PM 69.1 °F 61.0 °F 75% 30.05 in 10.0 mi SSW 8.1 mph - N/A   Mostly Cloudy
1:00 PM 69.8 °F 60.8 °F 73% 30.05 in 10.0 mi SSW 6.9 mph - N/A   Mostly Cloudy
1:53 PM 72.0 °F 62.1 °F 71% 30.02 in 10.0 mi South 10.4 mph - N/A   Partly Cloudy
2:53 PM 75.0 °F 63.0 °F 66% 30.00 in 10.0 mi SSW 9.2 mph - N/A   Scattered Clouds
3:53 PM 73.0 °F 63.0 °F 71% 29.99 in 10.0 mi Variable 6.9 mph - N/A   Scattered Clouds
4:01 PM 73.4 °F 62.6 °F 69% 30.00 in 10.0 mi Variable 5.8 mph - N/A   Mostly Cloudy
4:32 PM 73.4 °F 64.4 °F 73% 30.00 in 10.0 mi South 9.2 mph 17.3 mph N/A   Overcast
4:53 PM 72.0 °F 64.9 °F 78% 29.98 in 8.0 mi Variable 4.6 mph - 0.00 in Rain Light Rain
5:53 PM 72.0 °F 66.0 °F 81% 29.96 in 10.0 mi Variable 3.5 mph - 0.01 in   Scattered Clouds
6:53 PM 72.0 °F 64.9 °F 78% 29.94 in 10.0 mi Variable 4.6 mph - N/A   Partly Cloudy
7:53 PM 72.0 °F 66.0 °F 81% 29.94 in 8.0 mi Variable 4.6 mph - 0.00 in Rain Light Rain
8:42 PM 69.8 °F 64.4 °F 83% 29.97 in 1.8 mi WSW 3.5 mph - 0.13 in Rain Heavy Rain
8:53 PM 68.0 °F 66.0 °F 93% 29.96 in 1.2 mi Variable 5.8 mph - 0.27 in Rain Heavy Rain
9:03 PM 68.0 °F 64.4 °F 88% 29.97 in 3.0 mi South 8.1 mph - 0.02 in Rain Light Rain
9:08 PM 68.0 °F 64.4 °F 88% 29.96 in 7.0 mi South 10.4 mph 18.4 mph 0.02 in Rain Light Rain
9:18 PM 66.2 °F 64.4 °F 94% 29.97 in 10.0 mi South 8.1 mph 18.4 mph 0.02 in   Mostly Cloudy
9:53 PM 66.9 °F 63.0 °F 87% 29.94 in 10.0 mi South 5.8 mph - 0.02 in   Overcast
10:53 PM 66.0 °F 64.0 °F 93% 29.98 in 5.0 mi ENE 3.5 mph - 0.02 in Rain Rain
11:53 PM 68.0 °F 63.0 °F 84% 29.97 in 10.0 mi Calm Calm - 0.00 in   Mostly Cloudy